Погода в Монастырище

Россия / Приморский край     44°11′40″N   132°29′34″E
темп.,
°C
ветер,
м/с
пор.,
м/с
влажн.,
%
обл.,
%
осадки,
мм/ч
давл.,
гПа
погр.,
м
28 февраля, вс
вс2801:00−4ю6198791 0.0 1028636
04:00−2ююз8218895 0.0 1026601
07:00−2ююз71888100 0.0 1026494
10:00+1ю71588100 0.0 1024452
13:00+2ююз512100100 0.0 1023478
16:00+3ююз61291100 0.0 1022430
19:000ююз3390100 0.0 102357
22:00−4ссв61096100 1.9 1025472
1 марта, пн
пн101:00−8ссв51193100 1.3 1027606
04:00−9ссв3788100 1.3 1030462
07:00−12ссв5984100 0.1 1032395
10:00−12ссв5975100 0.1 1034521
13:00−11ссв5775100 0.0 1033682
16:00−11ссв5675100 0.0 1031648
19:00−12св3680100 0.0 1031339
22:00−13ссв2381100 0.0 103295
2 марта, вт
вт201:00−14с2379100 0.0 1030115
04:00−16с3681100 0.0 1029197
07:00−17ссв4885100 0.0 1029284
10:00−16с4893100 0.1 1029407
13:00−14с6989100 0.1 1028596
16:00−13с6986100 0.1 1027781
19:00−15ссв488364 0.0 1029393
22:00−17ссв248032 0.0 1031118
3 марта, ср
ср301:00−18всв11780 0.0 103022
04:00−17ююв11790 0.0 103020
07:00−18юв22830 0.0 103048
10:00−14юв34742 0.0 1028190
13:00−5ю6125770 0.0 1024803
16:00−5ююз9167285 0.0 1021995
19:00−4ю51787100 0.4 10181026
22:00−2ююз61892100 1.1 1017793
4 марта, чт
чт401:00−1ююз81885100 0.0 1014572
04:00−2ююз5148589 0.0 1014345
07:00−3ююз468529 0.0 1016110
10:000ююз5128219 0.0 1017394
13:00+3ююз5108486 0.0 1016657
16:00+5юз5116872 0.0 1015488
19:00+2ю347299 0.0 101450
22:000юз248499 0.0 1015109